Location: Newark
(44.1667°N, 8.2500°E)
Time: 02:20:23
(UTC+00:00)

S-56A Canister/Altair - Pass Details

Date: 16 December 2019
Orbit: 634 x 2498 km, 38.9° (Epoch: 28 January)

Event Time Altitude Azimuth Distance (km) Brightness Sun altitude
Rises 14:56:13 0° 284° (WNW) 6,181 12.7 6.7°
Reaches altitude 10° 15:01:30 10° 273° (W) 5,120 12.5 6.0°
Maximum altitude 15:11:37 23° 229° (SW) 3,808 12.8 4.6°
Drops below altitude 10° 15:20:18 10° 183° (S) 4,294 12.0 3.4°
Sets 15:24:16 0° 169° (S) 4,995 12.1 2.8°
